Regional Weather Roundup
Issued by NWS Goodland, KS

Home | Current Version | Previous Version | Graphics & Text | Print | Product List | Glossary On
Versions: 1 2 3 4 5 6 7 8 9 10 11 12 13 14 15 16 17 18 19 20 21 22 23 24 25 26 27 28 29 30 31 32 33 34 35 36 37 38 39 40 41 42 43 44 45 46 47 48 49 50
000
ASUS43 KGLD 270408
RWRGLD

GOODLAND FORECAST AREA HOURLY WEATHER ROUNDUP
NATIONAL WEATHER SERVICE GOODLAND KS
1000 PM MDT MON JUN 26 2017

...OFFICIAL OBSERVATIONS...

CITY           SKY/WX    TMP DP  RH WIND       PRES   REMARKS
GOODLAND KS    CLEAR     64  61  90 E7        30.12R
HILL CITY KS   CLEAR     67  59  75 E8        30.11R
IMPERIAL NEB   CLEAR     65  55  70 SE10      30.12R
MCCOOK NEB     CLEAR     66  59  78 E8        30.12R
AKRON CO       CLEAR     65  56  72 SE17      30.15R
BURLINGTON CO  CLEAR     64  58  80 E9        30.14R
LIMON CO       CLOUDY    64  55  72 SE9       30.19R
$$

...UNOFFICIAL OBSERVATIONS...

CITY           SKY/WX    TMP DP  RH WIND       PRES   REMARKS
LENORA KS        N/A     65  32  29 MISG        N/A
NORTON KS      CLEAR     64  55  72 E7        30.11R
SHARON SPRINGS   N/A     67  61  80 E9          N/A
TRENTON NEB      N/A     63  32  31 SE5         N/A
KIT CARSON CO    N/A     69  57  65 MISG        N/A
YUMA CO        FAIR      63  54  72 E8        30.13S
$$



USA.gov is the U.S. government's official web portal to all federal, state and local government web resources and services.